International Virtual Aviation Organisation

Russian Federation and Kazakhstan MCD

 

Карточка аэропорта URKA

Внимание!
Информация на этой странице в стадии наполнения.
Если вы не увидели какой-то информации, или заметили неточность - пожалуйста сообщите нам!
Спасибо!
Команда RU-STAFF
Название аэропортаВитязево
Название аэропорта (англ.)Vityazevo
Превышение176 ft. (53.6 m.)
Координаты45°0.13200000000012', 37°20.832'
Высота перехода1100m
Эшелон переходаFL050
Коды ответчика2400-2407
Зона ОрВДРостов-на-Дону РПИ (URRV)
Данные METARURKA 241500Z 24012MPS 1100 0500NE R22/0550D +SHRA SCT010 BKN020CB 08/06 Q0998 R22/290155 TEMPO 0500 +TSRA BKN003 BKN020CB RMK QFE744/0992
Проноз погоды (TAF)URKA 241357Z 2415/2515 22012G20MPS 6000 -SHRA BKN016 BKN030CB TEMPO 2415/2424 20017G25MPS 1000 TSRA BKN004 BKN020CB BECMG 2501/2503 27010G18MPS 9999 NSW
NOTAMshow/hide NOTAM
AWOS   TABLE

Информация о ВПП

ВПП Длина ВПП (м.) Покрытие Курс ВПП Частота ILS
042500Цементобетон36109.1
222500Цементобетон216 

Диспетчерские позиции

Позывной Наименование органа УВД Частота
URKA_R_APPАнапа-Круг118.7
URKA_TWRАнапа-Старт119.8
URKA_GNDАнапа-Руление119.0
URKAFM1119,0



Спутниковое изображение